This is the latest recevied weather packets stored in our database for station/object DC1MPP-9. If no packets are shown the sender has not sent any weather packets the latest 10 day(s).
| Time | Temp. | Humidity | Pressure | Rain* | Wind** | Luminosity | Snow |
|---|---|---|---|---|---|---|---|
| 1776946177 | 20° C | 28% | 967 hPa | - | - | - | - |
| 1776945936 | 19.44° C | 31% | 967 hPa | - | - | - | - |
| 1776945695 | 18.89° C | 29% | 967 hPa | - | - | - | - |
| 1776945454 | 18.89° C | 28% | 967 hPa | - | - | - | - |
| 1776945213 | 19.44° C | 29% | 967 hPa | - | - | - | - |
| 1776944972 | 18.89° C | 30% | 967 hPa | - | - | - | - |
| 1776944731 | 18.89° C | 28% | 967 hPa | - | - | - | - |
| 1776944490 | 18.89° C | 32% | 967 hPa | - | - | - | - |
| 1776944249 | 18.33° C | 29% | 967 hPa | - | - | - | - |
| 1776944008 | 18.33° C | 28% | 967 hPa | - | - | - | - |
| 1776943767 | 18.89° C | 29% | 967 hPa | - | - | - | - |
| 1776943573 | 17.78° C | 31% | 967 hPa | - | - | - | - |
| 1776943526 | 17.78° C | 31% | 967 hPa | - | - | - | - |
| 1776943285 | 17.78° C | 28% | 967 hPa | - | - | - | - |
| 1776943044 | 17.78° C | 26% | 967 hPa | - | - | - | - |
| 1776942803 | 18.33° C | 27% | 967 hPa | - | - | - | - |
| 1776942803 | 18.33° C | 27% | 967 hPa | - | - | - | - |
| 1776942562 | 18.33° C | 30% | 967 hPa | - | - | - | - |
| 1776942321 | 18.33° C | 27% | 967 hPa | - | - | - | - |
| 1776942080 | 18.33° C | 31% | 967 hPa | - | - | - | - |
| 1776941839 | 18.89° C | 31% | 967 hPa | - | - | - | - |
| 1776941598 | 18.89° C | 27% | 968 hPa | - | - | - | - |
| 1776941598 | 18.89° C | 27% | 968 hPa | - | - | - | - |
| 1776941357 | 18.89° C | 30% | 968 hPa | - | - | - | - |
| 1776941116 | 18.89° C | 32% | 968 hPa | - | - | - | - |
* Rain since midnight (hover to see other rain measurements)
** Current wind speed in m/s (hover to see current wind gust speed)